Regional Weather Roundup
Issued by NWS

Home | Current Version | Previous Version | Graphics & Text | Print | Product List | Glossary On
Versions: 1 2 3 4 5 6 7 8 9 10 11 12 13 14 15 16 17 18 19 20 21 22 23 24 25 26 27 28 29 30 31 32 33 34 35 36 37 38 39 40 41 42 43 44 45 46 47 48 49 50
000
ASUS43 KMPX 161101
RWRMN
WEATHER ROUNDUP FOR MINNESOTA
NATIONAL WEATHER SERVICE TWIN CITIES/CHANHASSEN MN
600 AM CDT TUE SEP 16 2014


NOTE: "FAIR" INDICATES FEW OR NO CLOUDS BELOW 12,000 FEET WITH NO
SIGNIFICANT WEATHER AND/OR OBSTRUCTIONS TO VISIBILITY. N/A MEANS
CURRENT SKY AND/OR WEATHER CONDITIONS ARE NOT AVAILABLE.

MNZ060>063-068>070-161200-
   Twin Cities Metro

CITY           SKY/WX    TMP DP  RH WIND       PRES   REMARKS
TWIN CITIES    CLEAR     44  39  82 S3        30.19F
ST PAUL        CLEAR     42  41  96 S3        30.21F
CRYSTAL        CLEAR     42  39  89 SE3       30.18S
BLAINE         CLEAR     43  43 100 S3        30.18F
LAKEVILLE      CLEAR     37  36  93 CALM      30.19F
EDEN PRAIRIE   CLEAR     41  39  93 SW3       30.19S
SOUTH ST PAUL  CLEAR     41  40  94 CALM      30.19F
LAKE ELMO      FAIR      39  39 100 S3        30.20F
$$
MNZ001>005-007-008-013>017-022>024-027-028-161200-
   Northwest Minnesota

CITY           SKY/WX    TMP DP  RH WIND       PRES   REMARKS
BEMIDJI        CLEAR     42  37  82 SW5       30.07F
HALLOCK        CLEAR     39  37  93 S8        29.99F
ROSEAU         CLOUDY    52  43  71 SW10      29.99S
WARROAD        CLOUDY    50  43  76 SW10      29.98F
THIEF RVR FALL CLEAR     43  37  81 SW10      30.05S
CROOKSTON      CLEAR     39  37  93 S7        30.07S
FOSSTON        CLEAR     37  36  93 S6        30.09S
DETROIT LAKES  CLEAR     45  37  76 SW5       30.12S
MOORHEAD       CLEAR     41  41 100 S7        30.11S
PARK RAPIDS    CLEAR     42  36  79 SW3       30.11S
MAHNOMEN       FAIR      40  36  87 S7        30.10S
$$
MNZ006-009>011-018-025>026-161200-
   North Central Minnesota

CITY           SKY/WX    TMP DP  RH WIND       PRES   REMARKS
BAUDETTE       MOCLDY    48  40  73 SW8       29.99F
FLAG ISLAND    CLOUDY    52  41  66 SW15      29.93S
INTL FALLS     CLEAR     39  37  92 SW7       29.99F
WASKISH        CLOUDY    52  45  76 SW8       30.04S
BIG FORK       CLEAR     46  39  76 SW7       30.06R
LONGVILLE      CLEAR     46  37  71 SW7       30.10S
GRAND RAPIDS   CLEAR     48  36  61 W9        30.09S
CRANE LAKE     PTCLDY    43  37  81 S3        30.03F
ORR            CLEAR     39  36  87 CALM      30.02S
COOK           PTCLDY    43  37  81 SW3       30.05S
WALKER         FAIR      47  36  67 W9        30.10S
$$
MNZ012-019>021-037-161200-
   Northeast Minnesota

CITY           SKY/WX    TMP DP  RH WIND       PRES   REMARKS
DULUTH         PTCLDY    45  36  70 W13       30.09F
ELY            MOCLDY    43  37  81 SW5       30.04S
HIBBING        MOCLDY    34  31  88 CALM      30.08S
EVELETH        PTCLDY    37  34  87 CALM      30.08S
DULUTH HARBOR  CLEAR     45  39  81 SW13      30.11S
TWO HARBORS    CLEAR     46  36  66 W9G16     30.06S
SILVER BAY     CLEAR     45  37  76 W5        30.04S
GRAND MARAIS     N/A     47  39  74 W5        30.02F
G MARAIS ARPRT MOCLDY    43  34  70 W9        30.02S
$$
MNZ029>031-032-039>041-046>048-054>057-064-161200-
   West Central Minnesota

CITY           SKY/WX    TMP DP  RH WIND       PRES   REMARKS
FERGUS FALLS   CLEAR     43  36  75 SE5       30.15S
WHEATON        CLEAR     37  34  87 S6        30.16S
MORRIS         CLEAR     37  36  93 S6        30.14F
ALEXANDRIA     CLEAR     43  36  76 SW8       30.17S
ELBOW LAKE     FAIR      37  35  91 S7        30.14S
WADENA         CLEAR     43  36  75 SW5       30.13S
GLENWOOD       CLEAR     39  36  87 SW7       30.17S
APPLETON       CLEAR     37  36  93 CALM      30.16S
BENSON         CLEAR     36  36 100 CALM      30.17S
ORTONVILLE     CLEAR     43  37  81 S5        30.15S
MADISON        CLEAR     41  39  93 S3        30.16F
WILLMAR        FAIR      39  36  87 CALM      30.19S
$$
MNZ033>034-036-042>043-049>051-058-059-161200-
   Central Minnesota

CITY           SKY/WX    TMP DP  RH WIND       PRES   REMARKS
ST CLOUD       CLEAR     40  36  86 S3        30.17F
SAUK CENTRE    FAIR      39  35  84 SW5       30.17S
PAYNESVILLE    CLEAR     34  34  99 CALM      30.18S
AITKIN         CLEAR     46  37  71 SW5       30.11S
PINE RIVER     CLEAR     43  36  75 SW3       30.15S
BRAINERD       CLEAR     39  35  86 SW3       30.14S
STAPLES        CLEAR     41  36  81 SW5       30.13S
LONG PRAIRIE   FAIR      37  34  87 S5        30.16S
LITTLE FALLS   CLEAR     37  34  87 CALM      30.16S
LITCHFIELD     CLEAR     43  39  87 CALM      30.19S
BUFFALO        CLEAR     38  36  91 CALM      30.19F
MAPLE LAKE     CLEAR     42  40  90 CALM      30.19S
$$
MNZ037-044-045-052-053-161200-
   East Central Minnesota

CITY           SKY/WX    TMP DP  RH WIND       PRES   REMARKS
PRINCETON      CLEAR     37  36  93 SW1       30.17F
MORA           CLEAR     39  34  81 SW3       30.17F
CAMBRIDGE      CLEAR     41  34  75 CALM      30.16S
RUSH CITY      CLEAR     36  35  95 CALM      30.18S
MOOSE LAKE     CLEAR     34  34 100 SW3       30.12S
HINCKLEY       FAIR      37  37 100 CALM      30.15F
CLOQUET        CLEAR     43  37  81 SW7       30.11S
MCGREGOR       CLEAR     43  36  75 SW6       30.13S
$$
MNZ071>073-080-081-089-090-097-098-161200-
   Southwest Minnesota

CITY           SKY/WX    TMP DP  RH WIND       PRES   REMARKS
MONTEVIDEO     CLEAR     39  34  81 SW6       30.18F
GRANITE FALLS  CLEAR     35  34  96 S7        30.19F WCI  29
CANBY          CLEAR     47  39  75 SW8       30.18F
MARSHALL       CLEAR     43  36  75 SW8       30.17F
REDWOOD FALLS  CLEAR     42  38  85 SW8       30.19S
OLIVIA         CLEAR     39  36  87 S3        30.18S
PIPESTONE      CLEAR     39  37  93 SW3       30.20S
WINDOM         FOG       37  36  93 CALM      30.20F VSB 3/4
WORTHINGTON    CLEAR     39  37  93 SW5       30.22S
JACKSON        CLEAR     41  37  87 S7        30.21F
TRACY          CLEAR     45  40  85 SW8       30.19F
SLAYTON        CLEAR     42  39  88 CALM      30.21S
$$
MNZ065>067-074>077-082>085-091>093-161200-
   South Central Minnesota

CITY           SKY/WX    TMP DP  RH WIND       PRES   REMARKS
MANKATO        CLEAR     39  34  81 S5        30.20F
NEW ULM        CLEAR     39  39 100 CALM      30.19F
ST JAMES       CLEAR     41  37  87 S5        30.21F
FAIRMONT       CLEAR     43  36  75 SW5       30.21F
GLENCOE        CLEAR     38  35  87 CALM      30.19S
FARIBAULT      CLEAR     39  34  81 CALM      30.21S
OWATONNA       CLEAR     39  36  87 CALM      30.21S
WASECA         CLEAR     36  32  87 CALM      30.23S
ALBERT LEA     CLEAR     39  39 100 CALM      30.22S
$$
MNZ078>079-086>088-094>096-161200-
   Southeast Minnesota

CITY           SKY/WX    TMP DP  RH WIND       PRES   REMARKS
ROCHESTER      CLEAR     39  36  89 SW7       30.22F
RED WING       CLEAR     37  36  93 CALM      30.20S
STANTON        CLEAR     39  36  89 CALM      30.19F
DODGE CENTER   PTCLDY    39  37  93 SW6       30.21F
WINONA         CLEAR     39  39 100 CALM      30.22F
AUSTIN         FOG       37  36  93 CALM      30.22S VSB 3/4
PRESTON        CLEAR     40  39  98 SW5       30.22F
$$
ABBREVIATIONS USED IN REMARKS
   TC - TEMPERATURES IN CELSIUS
  WCI - WIND CHILL INDEX
   HX - HEAT INDEX
  VSB - VISIBILITY
$$


USA.gov is the U.S. government's official web portal to all federal, state and local government web resources and services.